OPS 4682 DEB

基本信息
目录编号:
1389
目录名称:
OPS 4682 DEB
国际标识:
1965-027D
轨道中心:
EARTH
物体状态:
在轨
发射日期:
1965-04-03 UTC
轨道信息
数据来源: 国际轨道数据
星历时间: 2026-09-11T19:45:16+0800
半长轴: 7582.514km
偏心率: 0.0018315
轨道倾角: 89.874°
近地点辐角: 278.984°
升交点赤经: 218.655°
平近点角: 198.224°
近地点: 1190.489km
远地点: 1218.265km
周期: 109.516分钟
每日圈数: 13.148704
详细信息
发射场:
AFWTR
轨道高度:
LEO
数据来源:
AOE Integration Group
参考系:
TEME
时间系统:
UTC
历元类型:
SGP4
2D轨道图
3D轨道图
轨道高度分析图
轨道倾角分析图
轨道综合分析图
查看轨道综合分析图